Regional Weather Roundup
Issued by NWS

Home | Current Version | Previous Version | Text Only | Print | Product List | Glossary Off
Versions: 1 2 3 4 5 6 7 8 9 10 11 12 13 14 15 16 17 18 19 20 21 22 23 24 25 26 27 28 29 30 31 32 33 34 35 36 37 38 39 40 41 42 43 44 45 46 47 48 49 50

000
ASUS43 KMKX 241100
RWRWI

WISCONSIN REGIONAL WEATHER ROUNDUP
NATIONAL WEATHER SERVICE MILWAUKEE/SULLIVAN WI
600 AM CDT WED AUG 24 2016

NOTE: "FAIR" INDICATES FEW OR NO CLOUDS BELOW 12,000 FEET WITH NO
SIGNIFICANT WEATHER AND/OR OBSTRUCTIONS TO VISIBILITY.

WIZ001-002-006>008-014>016-023>028-241200-
NORTHWEST WISCONSIN

CITY           SKY/WX    TMP DP  RH WIND       PRES   REMARKS
SUPERIOR ARPT  CLOUDY    65  64  94 W3        29.80F
ASHLAND        CLOUDY    68  64  87 SE3       29.82S
HAYWARD        LGT RAIN  67  65  93 CALM      29.82S FOG
SIREN          DRIZZLE   66  65  97 CALM      29.82S
CUMBERLAND     DRIZZLE   64  64 100 CALM      29.82S
RICE LAKE      DRIZZLE   67  65  94 CALM      29.83S
CHETEK         NOT AVBL
LADYSMITH      HVY RAIN  67  65  94 S6        29.84S
EAU CLAIRE     CLOUDY    67  66  97 S6        29.81S
MENOMONIE      CLOUDY    67  66  99 S6        29.81S
NEW RICHMOND   CLOUDY    67  67  99 W7        29.82S
OSCEOLA        DRIZZLE   67  67 100 W3        29.84S
$$

WIZ003>005-009-010-017-018-241200-
NORTH CENTRAL WISCONSIN

CITY           SKY/WX    TMP DP  RH WIND       PRES   REMARKS
MANITOWISH WTR NOT AVBL
ARBOR VITAE    DRIZZLE   65  64  94 SE6       29.85F
WOODRUFF       DRIZZLE   65  64  94 SE6       29.85F
RHINELANDER    LGT RAIN  65  65 100 S6        29.88S
EAGLE RIVER    LGT RAIN  64  63  97 CALM      29.87F
LAND O LAKES   LGT RAIN  64  62  96 CALM      29.89F
PHILLIPS       LGT RAIN  65  65  99 S6        29.83F
TOMAHAWK       LGT RAIN  64  63  95 SE3       29.87F
MEDFORD        RAIN      65  65 100 S9        29.85F
MERRILL        RAIN      66  66 100 SE5       29.88S
$$

WIZ029-030-035-036-043>047-241200-
CENTRAL WISCONSIN

CITY           SKY/WX    TMP DP  RH WIND       PRES   REMARKS
WAUSAU         HVY RAIN  66  65  96 SE7       29.84F FOG
MOSINEE        NOT AVBL
MARSHFIELD     CLOUDY    67  64  90 S6        29.85F
STEVENS POINT  CLOUDY    65  65 100 SE5       29.86F
WAUPACA        LGT RAIN  70  70  99 S3        29.87S
WAUTOMA        LGT RAIN  69  69 100 S7        29.86F
WISC RAPIDS    CLOUDY    67  67 100 CALM      29.86F
CAMP DOUGLAS   NOT AVBL
$$

WIZ011>013-019>022-031-037>040-048>050-241200-
NORTHEAST WISCONSIN

CITY           SKY/WX    TMP DP  RH WIND       PRES   REMARKS
ANTIGO         CLOUDY    64  64 100 CALM      29.90S
SHAWANO        LGT RAIN  68  67  94 CALM      29.89S
OCONTO         NOT AVBL
STURGEON BAY   TSTM      67  65  93 VRB6      29.92F
GREEN BAY      RAIN      67  67 100 E6        29.88F FOG
MANITOWOC      CLOUDY    66  63  88 S12       29.91F
APPLETON       LGT RAIN  68  68 100 SE12G17   29.84F FOG
CLINTONVILLE   LGT RAIN  68  66  94 CALM      29.86F
OSHKOSH        LGT RAIN  70  67  90 S15       29.87F
$$

WIZ032>034-041-042-053>061-241200-
SOUTHWEST WISCONSIN

CITY           SKY/WX    TMP DP  RH WIND       PRES   REMARKS
LA CROSSE      CLOUDY    68  32  26 S9        29.84R
SPARTA         CLOUDY    65  64  97 CALM      29.86R
VIROQUA        CLOUDY    64  64 100 S7        29.88R
BOSCOBEL       CLOUDY    68  65  90 VRB3      29.86F THUNDER
PRAIRIE DU CHI LGT RAIN  65  64  96 SE6       29.86F
PLATTEVILLE    CLOUDY    67  67 100 E5        29.96R
$$

WIZ056-057-062-063-064-067-068-241200-
SOUTH CENTRAL WISCONSIN

CITY           SKY/WX    TMP DP  RH WIND       PRES   REMARKS
REEDSBURG      NOT AVBL
BARABOO/DELLS  RAIN      66  64  94 S10       29.86F
LONE ROCK      TSTM      66  64  94 S9        29.93R FOG
MINERAL POINT  RAIN      66  66 100 S8        29.95R
MADISON        LGT RAIN  68  66  93 S8        29.90F
MIDDLETON      CLOUDY    68  67  98 S9        29.90F
WATERTOWN      CLOUDY    70  70  99 S9G18     29.92R
MONROE         HVY RAIN  66  64  94 CALM      29.96R
JANESVILLE     CLOUDY    72  70  94 S14G20    29.93F
$$

WIZ051-052-058>065-066-070>072-241200-
SOUTHEAST WISCONSIN

CITY           SKY/WX    TMP DP  RH WIND       PRES   REMARKS
MILWAUKEE      PTCLDY    73  66  78 S14       29.94F
WAUKESHA       CLOUDY    68  64  88 S9G18     29.95F
MILWAUKEE/TIMM CLOUDY    72  63  73 S12G21    29.95F
RACINE         MOCLDY    71  64  78 S8        29.97F
BURLINGTON     CLOUDY    70  65  86 S12G17    29.95F
KENOSHA        PTCLDY    73  67  81 S13G22    29.97S
FOND DU LAC    LGT RAIN  71  68  90 S17G23    29.88F
SHEBOYGAN      CLOUDY    70  64  81 S12       29.92S
WEST BEND      CLOUDY    70  64  83 S10G16    29.93F
JUNEAU         RAIN      69  67  95 S16G23    29.92F
$$

LSZ147-162-241200-
LAKE SUPERIOR

STATION/POSITION TIME  TEMP    WIND        PRES    WAVE
                       AIR SEA DIR/SP/G            HT/PER
                 (UTC) (F)     (DEG/KT/KT) (MB)    (FT/S)
W MID LAKE BUOY  0950   69 68  150/  6/  6 1009.4F   1/ 4
DEVILS ISLAND    1000   70     140/  5/  5 1009.3F
PORT WING        1000   67      90/  1/  2 1009.8
SAXON HARBOR     1040   69      CALM  /  1 1009.8F
$$

LMZ867-665-643>646-241200-
LAKE MICHIGAN

STATION/POSITION TIME  TEMP    WIND        PRES    WAVE
                       AIR SEA DIR/SP/G            HT/PER
                 (UTC) (F)     (DEG/KT/KT) (MB)    (FT/S)
CHAMBERS ISLAND  1000   68     150/  6/ 12 1013.2F
S GREEN BAY BUOY 1000   68 73  150/ 14/ 16 1012.0
N MID LAKE BUOY  0950   71 71  190/ 17/ 21 1013.6F   6/ 7
NORTHPORT PIER   1000   69     160/  8/ 14 1013.9F
SISTER BAY       1037   67     180/ 16/ 19   N/A
KEWAUNEE LAKESHO 1000   65     180/  8/ 10 1013.0F
SHEBOYGAN LAKESH 1000   66     180/ 21/ 22 1012.8F
PORT WASHINGTON  1000   61     200/  6/  9 1014.6F
ATWATER BUOY     1000   63 54  170/ 10/ 14   N/A
MILWAUKEE LAKESH 1010   71     190/ 13/ 15   N/A
S MID LAKE BUOY  0950   74 75  170/ 23/ 29 1014.8F   5/ 5
KENOSHA   LAKESH 1000   65     180/ 12/ 16 1014.6F
$$

TC  - TEMPERATURE IN CELSIUS
VSB - VISIBILITY IN STATUTE MILES
WCI - WIND CHILL INDEX
HX  - HEAT INDEX





USA.gov is the U.S. government's official web portal to all federal, state and local government web resources and services.